This demonstration page uses our WeatherBlox Daily Observations layout. Learn more.

Left ArrowRight Arrow

Hourly Observations for November 1, 2020

Temp ( °F °C ) Dew Point ( °F °C ) Humidity (%) Winds ( mph kmh ) Pressure ( in mb ) Visibility ( mi km ) Precip ( " mm )
12:52 am 00:52 Clear 43 6.1 22 -5.6 43 43 NNW 21 33 30.29 1026 10 16 0.00 0.00
1:52 am 01:52 Clear 42 5.6 22 -5.6 45 45 NW 18 30 30.31 1027 10 16 0.00 0.00
1:52 am 01:52 Clear 40 4.4 22 -5.6 49 49 NNW 20 31 30.34 1027 10 16 0.00 0.00
2:52 am 02:52 Clear 36 2.2 23 -5 59 59 NW 13 20 30.36 1028 10 16 0.00 0.00
3:52 am 03:52 Clear 36 2.2 23 -5 59 59 NNW 14 22 30.37 1029 10 16 0.00 0.00
4:52 am 04:52 Clear 34 1.1 24 -4.4 67 67 NW 8 13 30.41 1030 10 16 0.00 0.00
5:52 am 05:52 Clear 36 2.2 22 -5.6 57 57 NW 13 20 30.43 1031 10 16 0.00 0.00
6:52 am 06:52 Cloudy 36 2.2 22 -5.6 57 57 NW 12 19 30.48 1032 10 16 0.00 0.00
7:52 am 07:52 Mostly Cloudy 36 2.2 23 -5 59 59 NW 17 28 30.51 1033 10 16 0.00 0.00
8:52 am 08:52 Mostly Cloudy 36 2.2 23 -5 59 59 NNW 14 22 30.55 1035 10 16 0.00 0.00
9:52 am 09:52 Mostly Cloudy 38 3.3 23 -5 55 55 NW 17 28 30.56 1035 10 16 0.00 0.00
10:52 am 10:52 Mostly Cloudy 41 5 23 -5 49 49 NW 10 17 30.58 1035 10 16 0.00 0.00
11:52 am 11:52 Mostly Cloudy 44 6.7 22 -5.6 41 41 N 13 20 30.58 1035 10 16 0.00 0.00
12:52 pm 12:52 Sunny 46 7.8 20 -6.7 35 35 NNW 9 15 30.56 1035 10 16 0.00 0.00
1:52 pm 13:52 Partly Cloudy 48 8.9 19 -7.2 32 32 Calm 30.54 1034 10 16 0.00 0.00
2:52 pm 14:52 Partly Cloudy 48 8.9 18 -7.8 30 30 SW 5 7 30.54 1034 10 16 0.00 0.00
3:52 pm 15:52 Mostly Sunny 48 8.9 16 -8.9 28 28 Calm 30.54 1034 10 16 0.00 0.00
4:52 pm 16:52 Mostly Sunny 46 7.8 16 -8.9 30 30 Calm 30.53 1034 10 16 0.00 0.00
5:52 pm 17:52 Mostly Clear 42 5.6 19 -7.2 40 40 ESE 3 6 30.52 1034 10 16 0.00 0.00
6:52 pm 18:52 Mostly Clear 39 3.9 19 -7.2 45 45 Calm 30.52 1034 10 16 0.00 0.00
7:52 pm 19:52 Mostly Clear 38 3.3 20 -6.7 48 48 Calm 30.52 1034 10 16 0.00 0.00
8:52 pm 20:52 Clear 35 1.7 22 -5.6 59 59 ESE 3 6 30.53 1034 10 16 0.00 0.00
9:52 pm 21:52 Clear 33 0.6 23 -5 66 66 SSE 5 7 30.51 1033 10 16 0.00 0.00
10:52 pm 22:52 Mostly Clear 33 0.6 22 -5.6 64 64 SSE 8 13 30.49 1033 10 16 0.00 0.00
11:52 pm 23:52 Partly Cloudy 34 1.1 21 -6.1 59 59 S 8 13 30.47 1032 10 16 0.00 0.00

Powered by AerisWeather